VTK605 UMOO-UMMG

Flight info

Callsign VTK605
Flight time 1h 20m
Altitude 18000
Route RAFMA L749 LIWIC M863 MNS T117 PEPAR
Aircraft C414/L-SBDFGRY/S

Departure

Time 2026-05-07 08:23
Airport Mogilev Airport (UMOO)

Arrival

Time 2026-05-07 09:43
Airport Hrodna Airport (UMMG)
Time Latitude Longitude Altitude Speed Heading
2026-05-07 08:15 53.95773 30.09795 608 ft 0 kts 318°
2026-05-07 08:18 53.95785 30.09724 609 ft 13 kts 240°
2026-05-07 08:19 53.95735 30.09576 609 ft 13 kts 225°
2026-05-07 08:19 53.95672 30.09468 614 ft 13 kts 226°
2026-05-07 08:19 53.95621 30.09341 610 ft 14 kts 278°
2026-05-07 08:19 53.95692 30.09191 617 ft 19 kts 316°
2026-05-07 08:20 53.95800 30.09019 608 ft 23 kts 317°
2026-05-07 08:20 53.95927 30.08816 608 ft 26 kts 317°
2026-05-07 08:20 53.96066 30.08594 610 ft 28 kts 317°
2026-05-07 08:20 53.96216 30.08352 615 ft 31 kts 316°
2026-05-07 08:21 53.96357 30.08207 613 ft 20 kts 334°
2026-05-07 08:21 53.96354 30.08126 608 ft 11 kts 127°
2026-05-07 08:21 53.96288 30.08239 607 ft 27 kts 135°
2026-05-07 08:21 53.96031 30.08642 610 ft 71 kts 136°
2026-05-07 08:22 53.95613 30.09339 629 ft 95 kts 139°
2026-05-07 08:22 53.95147 30.10186 734 ft 101 kts 133°
2026-05-07 08:22 53.94703 30.11128 883 ft 103 kts 133°
2026-05-07 08:22 53.94219 30.12098 1043 ft 116 kts 133°
2026-05-07 08:23 53.93548 30.12929 1246 ft 128 kts 165°
2026-05-07 08:23 53.92699 30.13610 1471 ft 142 kts 165°
2026-05-07 08:23 53.91732 30.13353 1701 ft 150 kts 213°
2026-05-07 08:23 53.91157 30.11874 1910 ft 161 kts 258°
2026-05-07 08:24 53.91421 30.10045 2142 ft 168 kts 297°
2026-05-07 08:24 53.92127 30.08383 2292 ft 175 kts 303°
2026-05-07 08:24 53.92817 30.06754 2621 ft 167 kts 297°
2026-05-07 08:24 53.93452 30.05117 2920 ft 167 kts 296°
2026-05-07 08:25 53.94103 30.03505 3231 ft 164 kts 298°
2026-05-07 08:25 53.94702 30.01869 3486 ft 161 kts 284°
2026-05-07 08:25 53.94870 30.00050 3719 ft 155 kts 267°
2026-05-07 08:25 53.94954 29.98216 3978 ft 154 kts 269°
2026-05-07 08:26 53.95127 29.94596 4457 ft 154 kts 267°
2026-05-07 08:26 53.95212 29.92780 4700 ft 155 kts 267°
2026-05-07 08:26 53.95297 29.90940 4926 ft 157 kts 267°
2026-05-07 08:27 53.95380 29.89079 5124 ft 158 kts 267°
2026-05-07 08:27 53.95464 29.87243 5367 ft 157 kts 266°
2026-05-07 08:27 53.95547 29.85390 5597 ft 158 kts 266°
2026-05-07 08:27 53.95634 29.83505 5801 ft 159 kts 267°
2026-05-07 08:28 53.95719 29.81658 6027 ft 158 kts 266°
2026-05-07 08:28 53.95802 29.79799 6275 ft 158 kts 266°
2026-05-07 08:28 53.95885 29.77938 6532 ft 158 kts 266°
2026-05-07 08:28 53.95969 29.76082 6776 ft 157 kts 266°
2026-05-07 08:29 53.96051 29.74225 6971 ft 158 kts 266°
2026-05-07 08:29 53.96134 29.72363 7176 ft 158 kts 265°
2026-05-07 08:29 53.96218 29.70498 7376 ft 159 kts 265°
2026-05-07 08:29 53.96299 29.68620 7588 ft 159 kts 265°
2026-05-07 08:30 53.96382 29.66746 7801 ft 159 kts 265°
2026-05-07 08:30 53.96465 29.64874 8009 ft 161 kts 265°
2026-05-07 08:30 53.96547 29.62971 8213 ft 161 kts 265°
2026-05-07 08:30 53.96630 29.61075 8424 ft 161 kts 265°
2026-05-07 08:31 53.96713 29.59173 8653 ft 161 kts 264°
2026-05-07 08:31 53.96794 29.57271 8884 ft 161 kts 264°
2026-05-07 08:31 53.96877 29.55365 9127 ft 161 kts 264°
2026-05-07 08:31 53.96958 29.53464 9364 ft 162 kts 264°
2026-05-07 08:32 53.97039 29.51555 9592 ft 161 kts 263°
2026-05-07 08:32 53.97119 29.49652 9819 ft 162 kts 263°
2026-05-07 08:32 53.97202 29.47738 10034 ft 162 kts 263°
2026-05-07 08:32 53.97282 29.45828 10217 ft 163 kts 264°
2026-05-07 08:33 53.97363 29.43900 10406 ft 164 kts 264°
2026-05-07 08:33 53.97446 29.41943 10564 ft 167 kts 264°
2026-05-07 08:33 53.97528 29.39978 10746 ft 167 kts 264°
2026-05-07 08:33 53.97610 29.38003 10926 ft 168 kts 264°
2026-05-07 08:34 53.97694 29.36016 11135 ft 168 kts 265°
2026-05-07 08:34 53.97774 29.34033 11324 ft 169 kts 265°
2026-05-07 08:34 53.98074 29.32045 11477 ft 180 kts 282°
2026-05-07 08:34 53.98539 29.30069 11653 ft 180 kts 281°
2026-05-07 08:35 53.98983 29.28085 11837 ft 180 kts 281°
2026-05-07 08:35 53.99430 29.26091 12021 ft 181 kts 281°
2026-05-07 08:35 53.99881 29.24095 12224 ft 181 kts 282°
2026-05-07 08:35 54.00330 29.22099 12396 ft 182 kts 282°
2026-05-07 08:36 54.00781 29.20086 12570 ft 182 kts 282°
2026-05-07 08:36 54.01233 29.18067 12748 ft 183 kts 282°
2026-05-07 08:36 54.01687 29.16043 12937 ft 183 kts 282°
2026-05-07 08:36 54.02142 29.14012 13122 ft 184 kts 282°
2026-05-07 08:37 54.02598 29.11974 13316 ft 185 kts 283°
2026-05-07 08:37 54.03056 29.09915 13480 ft 187 kts 283°
2026-05-07 08:37 54.03519 29.07842 13666 ft 187 kts 283°
2026-05-07 08:37 54.03982 29.05772 13829 ft 187 kts 283°
2026-05-07 08:38 54.04444 29.03698 13988 ft 188 kts 283°
2026-05-07 08:38 54.04905 29.01624 14148 ft 187 kts 283°
2026-05-07 08:38 54.05365 28.99556 14319 ft 187 kts 283°
2026-05-07 08:38 54.05825 28.97486 14480 ft 188 kts 283°
2026-05-07 08:39 54.06280 28.95437 14650 ft 187 kts 283°
2026-05-07 08:39 54.06745 28.93336 14807 ft 187 kts 283°
2026-05-07 08:39 54.07095 28.91261 14940 ft 182 kts 268°
2026-05-07 08:39 54.06959 28.89149 15091 ft 176 kts 249°
2026-05-07 08:40 54.06546 28.87196 15250 ft 176 kts 247°
2026-05-07 08:40 54.06148 28.85254 15407 ft 176 kts 247°
2026-05-07 08:40 54.05741 28.83298 15570 ft 175 kts 247°
2026-05-07 08:40 54.05332 28.81343 15729 ft 175 kts 247°
2026-05-07 08:41 54.04923 28.79387 15872 ft 176 kts 247°
2026-05-07 08:41 54.04512 28.77425 16027 ft 176 kts 247°
2026-05-07 08:41 54.04102 28.75462 16186 ft 176 kts 247°
2026-05-07 08:41 54.03691 28.73500 16339 ft 176 kts 248°
2026-05-07 08:42 54.03279 28.71538 16501 ft 176 kts 248°
2026-05-07 08:42 54.02867 28.69576 16657 ft 176 kts 248°
2026-05-07 08:42 54.02453 28.67607 16810 ft 177 kts 248°
2026-05-07 08:42 54.02039 28.65641 16966 ft 177 kts 248°
2026-05-07 08:43 54.01623 28.63670 17122 ft 177 kts 248°
2026-05-07 08:43 54.01208 28.61698 17284 ft 177 kts 248°
2026-05-07 08:43 54.00927 28.60365 17397 ft 177 kts 248°
2026-05-07 08:43 54.00511 28.58398 17557 ft 177 kts 248°
2026-05-07 08:44 54.00095 28.56429 17707 ft 177 kts 248°
2026-05-07 08:44 53.99677 28.54455 17843 ft 178 kts 248°
2026-05-07 08:44 53.99250 28.52435 17847 ft 184 kts 248°
2026-05-07 08:44 53.98812 28.50373 17854 ft 187 kts 248°
2026-05-07 08:45 53.98370 28.48284 17855 ft 189 kts 248°
2026-05-07 08:45 53.97920 28.46167 17846 ft 192 kts 248°
2026-05-07 08:45 53.97466 28.44029 17847 ft 193 kts 248°
2026-05-07 08:45 53.97006 28.41875 17845 ft 194 kts 248°
2026-05-07 08:46 53.96545 28.39708 17847 ft 195 kts 248°
2026-05-07 08:46 53.96090 28.37573 17838 ft 195 kts 248°
2026-05-07 08:46 53.95628 28.35411 17838 ft 195 kts 248°
2026-05-07 08:46 53.95165 28.33246 17839 ft 195 kts 248°
2026-05-07 08:47 53.94702 28.31080 17840 ft 195 kts 248°
2026-05-07 08:47 53.94237 28.28914 17840 ft 195 kts 248°
2026-05-07 08:47 53.93773 28.26751 17840 ft 195 kts 248°
2026-05-07 08:47 53.93308 28.24587 17841 ft 195 kts 248°
2026-05-07 08:48 53.92843 28.22421 17841 ft 195 kts 247°
2026-05-07 08:48 53.92378 28.20259 17840 ft 195 kts 247°
2026-05-07 08:48 53.91911 28.18090 17841 ft 196 kts 247°
2026-05-07 08:48 53.91443 28.15917 17838 ft 196 kts 247°
2026-05-07 08:49 53.90975 28.13751 17839 ft 196 kts 247°
2026-05-07 08:49 53.90505 28.11579 17861 ft 197 kts 247°
2026-05-07 08:49 53.90033 28.09398 17862 ft 196 kts 247°
2026-05-07 08:49 53.89564 28.07229 17862 ft 196 kts 247°
2026-05-07 08:50 53.89093 28.05058 17861 ft 196 kts 247°
2026-05-07 08:50 53.88625 28.02885 17861 ft 196 kts 249°
2026-05-07 08:50 53.88456 28.00582 17865 ft 200 kts 266°
2026-05-07 08:50 53.88501 27.98236 17867 ft 199 kts 266°
2026-05-07 08:51 53.88526 27.95891 17865 ft 199 kts 266°
2026-05-07 08:51 53.88555 27.93535 17865 ft 200 kts 266°
2026-05-07 08:51 53.88585 27.91179 17865 ft 200 kts 266°
2026-05-07 08:51 53.88614 27.88815 17866 ft 200 kts 266°
2026-05-07 08:52 53.88642 27.86455 17864 ft 200 kts 266°
2026-05-07 08:52 53.88670 27.84103 17864 ft 200 kts 266°
2026-05-07 08:52 53.88699 27.81741 17862 ft 200 kts 266°
2026-05-07 08:52 53.88725 27.79386 17862 ft 201 kts 266°
2026-05-07 08:53 53.88750 27.77007 17867 ft 202 kts 265°
2026-05-07 08:53 53.88778 27.74628 17859 ft 201 kts 265°
2026-05-07 08:53 53.88804 27.72267 17857 ft 200 kts 265°
2026-05-07 08:53 53.88830 27.69913 17856 ft 199 kts 265°
2026-05-07 08:54 53.88855 27.67564 17854 ft 199 kts 265°
2026-05-07 08:54 53.88879 27.65219 17851 ft 199 kts 265°
2026-05-07 08:54 53.88902 27.62880 17850 ft 199 kts 265°
2026-05-07 08:54 53.88926 27.60534 17849 ft 199 kts 265°
2026-05-07 08:55 53.88949 27.58192 17846 ft 198 kts 265°
2026-05-07 08:55 53.88971 27.55858 17836 ft 198 kts 265°
2026-05-07 08:55 53.88992 27.53530 17834 ft 198 kts 265°
2026-05-07 08:55 53.89014 27.51203 17833 ft 197 kts 265°
2026-05-07 08:56 53.89035 27.48874 17830 ft 197 kts 265°
2026-05-07 08:56 53.89056 27.46547 17827 ft 197 kts 265°
2026-05-07 08:56 53.89074 27.44237 17825 ft 197 kts 265°
2026-05-07 08:56 53.89094 27.41907 17822 ft 197 kts 265°
2026-05-07 08:57 53.89114 27.39580 17823 ft 198 kts 265°
2026-05-07 08:57 53.89133 27.37250 17822 ft 197 kts 265°
2026-05-07 08:57 53.89151 27.34930 17822 ft 197 kts 265°
2026-05-07 08:57 53.89168 27.32613 17828 ft 197 kts 265°
2026-05-07 08:58 53.89186 27.30296 17828 ft 196 kts 265°
2026-05-07 08:58 53.89203 27.27981 17828 ft 196 kts 265°
2026-05-07 08:58 53.89219 27.25661 17830 ft 197 kts 265°
2026-05-07 08:58 53.89235 27.23328 17831 ft 197 kts 265°
2026-05-07 08:59 53.89251 27.21004 17832 ft 197 kts 265°
2026-05-07 08:59 53.89266 27.18672 17838 ft 197 kts 265°
2026-05-07 08:59 53.89277 27.16377 17834 ft 198 kts 265°
2026-05-07 08:59 53.89295 27.14051 17836 ft 197 kts 265°
2026-05-07 09:00 53.89310 27.11737 17836 ft 197 kts 265°
2026-05-07 09:00 53.89323 27.09418 17833 ft 196 kts 265°
2026-05-07 09:00 53.89335 27.07102 17832 ft 197 kts 265°
2026-05-07 09:00 53.89346 27.04785 17832 ft 197 kts 265°
2026-05-07 09:01 53.89357 27.02457 17831 ft 197 kts 265°
2026-05-07 09:01 53.89370 27.00136 17833 ft 197 kts 265°
2026-05-07 09:01 53.89381 26.97818 17833 ft 197 kts 265°
2026-05-07 09:01 53.89391 26.95496 17832 ft 197 kts 265°
2026-05-07 09:02 53.89401 26.93178 17831 ft 197 kts 265°
2026-05-07 09:02 53.89411 26.90858 17831 ft 197 kts 265°
2026-05-07 09:02 53.89420 26.88542 17832 ft 196 kts 265°
2026-05-07 09:02 53.89429 26.86221 17832 ft 197 kts 265°
2026-05-07 09:03 53.89437 26.83907 17832 ft 197 kts 265°
2026-05-07 09:03 53.89444 26.81588 17833 ft 197 kts 265°
2026-05-07 09:03 53.89453 26.79270 17832 ft 196 kts 265°
2026-05-07 09:03 53.89461 26.76948 17832 ft 197 kts 265°
2026-05-07 09:04 53.89466 26.74627 17832 ft 197 kts 265°
2026-05-07 09:04 53.89465 26.72308 17831 ft 196 kts 263°
2026-05-07 09:04 53.89286 26.70035 17830 ft 194 kts 257°
2026-05-07 09:04 53.89080 26.67777 17829 ft 194 kts 257°
2026-05-07 09:05 53.88883 26.65546 17832 ft 193 kts 257°
2026-05-07 09:05 53.88685 26.63287 17832 ft 194 kts 257°
2026-05-07 09:05 53.88486 26.61030 17831 ft 194 kts 257°
2026-05-07 09:05 53.88285 26.58764 17831 ft 194 kts 257°
2026-05-07 09:06 53.88085 26.56506 17835 ft 194 kts 257°
2026-05-07 09:06 53.87884 26.54243 17835 ft 194 kts 257°
2026-05-07 09:06 53.87683 26.51981 17835 ft 194 kts 257°
2026-05-07 09:06 53.87480 26.49719 17834 ft 194 kts 257°
2026-05-07 09:07 53.87279 26.47465 17822 ft 194 kts 257°
2026-05-07 09:07 53.87077 26.45208 17821 ft 193 kts 257°
2026-05-07 09:07 53.86877 26.42962 17821 ft 192 kts 257°
2026-05-07 09:07 53.86673 26.40720 17821 ft 192 kts 257°
2026-05-07 09:08 53.86469 26.38484 17819 ft 193 kts 257°
2026-05-07 09:08 53.86267 26.36231 17820 ft 193 kts 257°
2026-05-07 09:08 53.86064 26.33989 17821 ft 193 kts 257°
2026-05-07 09:08 53.85860 26.31743 17820 ft 193 kts 257°
2026-05-07 09:09 53.85654 26.29489 17820 ft 193 kts 257°
2026-05-07 09:09 53.85449 26.27238 17822 ft 194 kts 257°
2026-05-07 09:09 53.85244 26.24986 17822 ft 194 kts 257°
2026-05-07 09:09 53.85037 26.22734 17821 ft 193 kts 257°
2026-05-07 09:10 53.84833 26.20508 17818 ft 193 kts 257°
2026-05-07 09:10 53.84626 26.18263 17818 ft 193 kts 257°
2026-05-07 09:10 53.84419 26.16012 17819 ft 193 kts 257°
2026-05-07 09:10 53.84207 26.13726 17822 ft 194 kts 257°
2026-05-07 09:11 53.84000 26.11476 17821 ft 194 kts 257°
2026-05-07 09:11 53.83790 26.09216 17821 ft 195 kts 257°
2026-05-07 09:11 53.83579 26.06951 17820 ft 194 kts 257°
2026-05-07 09:11 53.83368 26.04692 17821 ft 194 kts 257°
2026-05-07 09:12 53.83158 26.02438 17821 ft 194 kts 257°
2026-05-07 09:12 53.82948 26.00213 17819 ft 194 kts 257°
2026-05-07 09:12 53.82739 25.97959 17819 ft 194 kts 257°
2026-05-07 09:12 53.82527 25.95708 17819 ft 194 kts 257°
2026-05-07 09:13 53.82314 25.93453 17833 ft 194 kts 257°
2026-05-07 09:13 53.82101 25.91196 17832 ft 194 kts 257°
2026-05-07 09:13 53.81888 25.88946 17830 ft 194 kts 257°
2026-05-07 09:13 53.81675 25.86695 17832 ft 194 kts 257°
2026-05-07 09:14 53.81461 25.84447 17830 ft 194 kts 257°
2026-05-07 09:14 53.81247 25.82198 17829 ft 194 kts 257°
2026-05-07 09:14 53.81033 25.79950 17835 ft 194 kts 257°
2026-05-07 09:14 53.80818 25.77697 17836 ft 194 kts 257°
2026-05-07 09:15 53.80602 25.75445 17832 ft 194 kts 257°
2026-05-07 09:15 53.80387 25.73198 17833 ft 193 kts 257°
2026-05-07 09:15 53.80170 25.70949 17832 ft 193 kts 257°
2026-05-07 09:15 53.79954 25.68708 17827 ft 193 kts 257°
2026-05-07 09:16 53.79737 25.66468 17828 ft 193 kts 257°
2026-05-07 09:16 53.79521 25.64231 17829 ft 194 kts 257°
2026-05-07 09:16 53.79303 25.61982 17817 ft 194 kts 256°
2026-05-07 09:16 53.79086 25.59737 17817 ft 194 kts 256°
2026-05-07 09:17 53.78866 25.57479 17818 ft 194 kts 256°
2026-05-07 09:17 53.78647 25.55225 17818 ft 194 kts 256°
2026-05-07 09:17 53.78426 25.52968 17819 ft 195 kts 256°
2026-05-07 09:17 53.78204 25.50708 17819 ft 195 kts 256°
2026-05-07 09:18 53.77983 25.48453 17822 ft 195 kts 256°
2026-05-07 09:18 53.77760 25.46183 17821 ft 195 kts 256°
2026-05-07 09:18 53.77537 25.43920 17822 ft 195 kts 256°
2026-05-07 09:18 53.77314 25.41658 17816 ft 195 kts 256°
2026-05-07 09:19 53.77090 25.39393 17817 ft 195 kts 256°
2026-05-07 09:19 53.76866 25.37133 17816 ft 195 kts 256°
2026-05-07 09:19 53.76642 25.34877 17816 ft 195 kts 256°
2026-05-07 09:19 53.76416 25.32617 17816 ft 195 kts 256°
2026-05-07 09:20 53.76191 25.30359 17833 ft 195 kts 256°
2026-05-07 09:20 53.75966 25.28097 17829 ft 195 kts 256°
2026-05-07 09:20 53.75740 25.25841 17829 ft 195 kts 256°
2026-05-07 09:20 53.75516 25.23612 17829 ft 195 kts 256°
2026-05-07 09:21 53.75287 25.21327 17826 ft 195 kts 256°
2026-05-07 09:21 53.75062 25.19098 17826 ft 195 kts 256°
2026-05-07 09:21 53.74835 25.16842 17823 ft 195 kts 256°
2026-05-07 09:21 53.74607 25.14586 17823 ft 195 kts 256°
2026-05-07 09:22 53.74379 25.12335 17823 ft 195 kts 256°
2026-05-07 09:22 53.74149 25.10082 17823 ft 194 kts 255°
2026-05-07 09:22 53.73860 25.07861 17822 ft 194 kts 254°
2026-05-07 09:22 53.73595 25.05628 17822 ft 194 kts 254°
2026-05-07 09:23 53.73331 25.03429 17712 ft 186 kts 254°
2026-05-07 09:23 53.73156 25.01998 17580 ft 181 kts 253°
2026-05-07 09:23 53.72899 24.99947 17364 ft 177 kts 253°
2026-05-07 09:23 53.72650 24.97959 17152 ft 173 kts 253°
2026-05-07 09:24 53.72403 24.95981 16933 ft 171 kts 253°
2026-05-07 09:24 53.72159 24.94025 16715 ft 170 kts 253°
2026-05-07 09:24 53.71915 24.92080 16488 ft 169 kts 253°
2026-05-07 09:24 53.71673 24.90143 16267 ft 168 kts 253°
2026-05-07 09:25 53.71431 24.88215 16053 ft 168 kts 252°
2026-05-07 09:25 53.71189 24.86291 15831 ft 167 kts 252°
2026-05-07 09:25 53.70949 24.84378 15610 ft 167 kts 253°
2026-05-07 09:25 53.70708 24.82464 15390 ft 166 kts 252°
2026-05-07 09:26 53.70467 24.80553 15170 ft 166 kts 252°
2026-05-07 09:26 53.70226 24.78647 14945 ft 166 kts 252°
2026-05-07 09:26 53.69985 24.76742 14726 ft 166 kts 252°
2026-05-07 09:26 53.69744 24.74836 14506 ft 166 kts 252°
2026-05-07 09:27 53.69503 24.72923 14284 ft 167 kts 252°
2026-05-07 09:27 53.69255 24.70988 14051 ft 169 kts 252°
2026-05-07 09:27 53.68760 24.67088 13592 ft 171 kts 252°
2026-05-07 09:28 53.68510 24.65128 13361 ft 172 kts 252°
2026-05-07 09:28 53.68260 24.63162 13126 ft 171 kts 252°
2026-05-07 09:28 53.68010 24.61211 12906 ft 170 kts 252°
2026-05-07 09:28 53.67761 24.59259 12682 ft 170 kts 252°
2026-05-07 09:29 53.67509 24.57302 12449 ft 171 kts 252°
2026-05-07 09:29 53.67258 24.55336 12214 ft 171 kts 252°
2026-05-07 09:29 53.67006 24.53382 11996 ft 170 kts 252°
2026-05-07 09:29 53.66757 24.51440 11775 ft 170 kts 252°
2026-05-07 09:30 53.66503 24.49468 11548 ft 169 kts 252°
2026-05-07 09:30 53.66253 24.47535 11327 ft 169 kts 252°
2026-05-07 09:30 53.66002 24.45601 11107 ft 168 kts 252°
2026-05-07 09:30 53.65753 24.43673 10884 ft 168 kts 252°
2026-05-07 09:31 53.65511 24.41765 10662 ft 168 kts 252°
2026-05-07 09:31 53.65118 24.39966 10447 ft 162 kts 229°
2026-05-07 09:31 53.64186 24.38970 10249 ft 163 kts 198°
2026-05-07 09:31 53.63021 24.39022 10009 ft 172 kts 179°
2026-05-07 09:32 53.61842 24.39188 9774 ft 169 kts 184°
2026-05-07 09:32 53.60677 24.39236 9553 ft 167 kts 186°
2026-05-07 09:32 53.59526 24.39169 9338 ft 164 kts 189°
2026-05-07 09:32 53.58394 24.38993 9128 ft 162 kts 192°
2026-05-07 09:33 53.57286 24.38713 8924 ft 161 kts 195°
2026-05-07 09:33 53.56187 24.38329 8706 ft 161 kts 198°
2026-05-07 09:33 53.55111 24.37844 8496 ft 159 kts 200°
2026-05-07 09:33 53.54060 24.37263 8303 ft 158 kts 203°
2026-05-07 09:34 53.53033 24.36590 8095 ft 158 kts 206°
2026-05-07 09:34 53.52035 24.35824 7886 ft 158 kts 208°
2026-05-07 09:34 53.51066 24.34972 7680 ft 157 kts 211°
2026-05-07 09:34 53.50133 24.34038 7475 ft 156 kts 214°
2026-05-07 09:35 53.49233 24.33024 7270 ft 156 kts 216°
2026-05-07 09:35 53.48367 24.31930 7064 ft 155 kts 219°
2026-05-07 09:35 53.47543 24.30767 6859 ft 155 kts 221°
2026-05-07 09:35 53.46756 24.29529 6657 ft 154 kts 224°
2026-05-07 09:36 53.46015 24.28233 6453 ft 154 kts 226°
2026-05-07 09:36 53.45309 24.26857 6241 ft 157 kts 229°
2026-05-07 09:36 53.44639 24.25399 6020 ft 158 kts 232°
2026-05-07 09:36 53.44021 24.23885 5812 ft 157 kts 234°
2026-05-07 09:37 53.43451 24.22316 5590 ft 158 kts 238°
2026-05-07 09:37 53.42929 24.20696 5375 ft 158 kts 238°
2026-05-07 09:37 53.42350 24.19162 5183 ft 156 kts 245°
2026-05-07 09:37 53.41996 24.17429 4964 ft 159 kts 247°
2026-05-07 09:38 53.41661 24.15657 4857 ft 157 kts 250°
2026-05-07 09:38 53.41386 24.13914 4755 ft 156 kts 252°
2026-05-07 09:38 53.41154 24.12114 4538 ft 160 kts 255°
2026-05-07 09:38 53.40978 24.10271 4319 ft 160 kts 258°
2026-05-07 09:39 53.40921 24.08397 4106 ft 165 kts 272°
2026-05-07 09:39 53.41383 24.06598 3891 ft 176 kts 301°
2026-05-07 09:39 53.42386 24.05325 3650 ft 189 kts 333°
2026-05-07 09:39 53.43722 24.05050 3407 ft 199 kts 356°
2026-05-07 09:40 53.45118 24.05120 3166 ft 202 kts 358°
2026-05-07 09:40 53.46530 24.05172 2888 ft 202 kts 357°
2026-05-07 09:40 53.47927 24.05221 2618 ft 198 kts 356°
2026-05-07 09:40 53.49297 24.05268 2356 ft 195 kts 356°
2026-05-07 09:41 53.50640 24.05313 2090 ft 192 kts 356°
2026-05-07 09:41 53.51954 24.05360 1846 ft 185 kts 356°
2026-05-07 09:41 53.53228 24.05375 1598 ft 180 kts 355°
2026-05-07 09:41 53.54465 24.05395 1431 ft 173 kts 354°
2026-05-07 09:42 53.55636 24.05442 1332 ft 159 kts 359°
2026-05-07 09:42 53.56696 24.05661 1013 ft 141 kts 358°
2026-05-07 09:42 53.57595 24.05532 750 ft 119 kts 354°
2026-05-07 09:42 53.58377 24.05473 595 ft 105 kts 355°
2026-05-07 09:43 53.59083 24.05435 436 ft 99 kts 354°
2026-05-07 09:43 53.59697 24.05395 417 ft 75 kts 359°
2026-05-07 09:43 53.60079 24.05382 414 ft 38 kts 357°
2026-05-07 09:43 53.60336 24.05377 418 ft 33 kts
2026-05-07 09:44 53.60495 24.05361 414 ft 12 kts 357°
2026-05-07 09:44 53.60583 24.05324 419 ft 16 kts 313°
2026-05-07 09:44 53.60596 24.05141 415 ft 18 kts 269°
2026-05-07 09:44 53.60592 24.04927 414 ft 19 kts 266°
2026-05-07 09:45 53.60488 24.04862 418 ft 20 kts 189°
2026-05-07 09:45 53.60352 24.04869 417 ft 18 kts 179°
2026-05-07 09:45 53.60258 24.04886 418 ft 12 kts 163°
2026-05-07 09:45 53.60195 24.04865 416 ft 8 kts 265°
2026-05-07 09:46 53.60195 24.04826 418 ft 0 kts 266°